| time (UTC) | temp C | wind direction | speed KPH | gust KPH | rain 1hr cm | rain 24hr cm | rain mn cm | humidity % | barometer mb |
| 20260902024054 | 16 | 201 | 3.2 | 11.3 | 0.00 | 0.00 | 0.00 | 86 | 1019.1 |
| 20260902022554 | 16 | 218 | 1.6 | 4.8 | 0.00 | 0.00 | 0.00 | 86 | 1019.2 |
| 20260902022054 | 16 | 219 | 4.8 | 12.9 | 0.00 | 0.00 | 0.00 | 86 | 1019.3 |
| 20260902013553 | 16 | 217 | 4.8 | 9.7 | 0.00 | 0.00 | 0.00 | 85 | 1019.3 |
| 20260902012054 | 16 | 219 | 3.2 | 9.7 | 0.00 | 0.00 | 0.00 | 86 | 1019.4 |
| 20260902011553 | 16 | 219 | 4.8 | 9.7 | 0.00 | 0.00 | 0.00 | 86 | 1019.4 |
| 20260902004553 | 16 | 227 | 4.8 | 9.7 | 0.00 | 0.00 | 0.00 | 85 | 1019.5 |
| 20260902004054 | 16 | 229 | 3.2 | 8.0 | 0.00 | 0.00 | 0.00 | 85 | 1019.4 |
| 20260902003554 | 16 | 231 | 4.8 | 8.0 | 0.00 | 0.00 | 0.00 | 85 | 1019.5 |
| 20260902003054 | 16 | 232 | 3.2 | 4.8 | 0.00 | 0.00 | 0.00 | 85 | 1019.5 |
| 20260902002553 | 16 | 232 | 3.2 | 8.0 | 0.00 | 0.00 | 0.00 | 85 | 1019.5 |
| 20260902002054 | 16 | 233 | 4.8 | 8.0 | 0.00 | 0.00 | 0.00 | 85 | 1019.5 |
| 20260902001553 | 16 | 233 | 4.8 | 8.0 | 0.00 | 0.00 | 0.00 | 85 | 1019.5 |
| 20260902001054 | 16 | 234 | 1.6 | 8.0 | 0.00 | 0.00 | 0.00 | 84 | 1019.5 |
| 20260902000054 | 16 | 234 | 1.6 | 4.8 | 0.00 | 0.00 | 0.00 | 84 | 1019.7 |
| 20260901235553 | 16 | 234 | 1.6 | 4.8 | 0.00 | 0.00 | 0.00 | 84 | 1019.7 |
| 20260901235054 | 16 | 234 | 3.2 | 9.7 | 0.00 | 0.00 | 0.00 | 84 | 1019.7 |
| 20260901231553 | 16 | 242 | 1.6 | 4.8 | 0.00 | 0.00 | 0.00 | 82 | 1019.9 |
| 20260901231054 | 16 | 242 | 1.6 | 4.8 | 0.00 | 0.00 | 0.00 | 82 | 1019.9 |
| 20260901224054 | 16 | 248 | 0.0 | 4.8 | 0.00 | 0.00 | 0.00 | 83 | 1020.1 |
| 20260901223553 | 16 | 248 | 3.2 | 4.8 | 0.00 | 0.00 | 0.00 | 83 | 1020.1 |
| 20260901223053 | 16 | 248 | 0.0 | 0.0 | 0.00 | 0.00 | 0.00 | 82 | 1020.1 |
| 20260901222553 | 16 | 248 | 0.0 | 0.0 | 0.00 | 0.00 | 0.00 | 82 | 1020.1 |
| 20260901222054 | 16 | 248 | 0.0 | 1.6 | 0.00 | 0.00 | 0.00 | 82 | 1020.0 |
| 20260901221553 | 16 | 248 | 0.0 | 3.2 | 0.00 | 0.00 | 0.00 | 83 | 1019.9 |
| 20260901221053 | 16 | 248 | 1.6 | 4.8 | 0.00 | 0.00 | 0.00 | 83 | 1020.0 |
| 20260901213055 | 16 | 248 | 0.0 | 0.0 | 0.00 | 0.08 | 0.00 | 82 | 1020.0 |
| 20260901212553 | 16 | 248 | 0.0 | 0.0 | 0.00 | 0.15 | 0.00 | 81 | 1020.0 |
| 20260901205054 | 16 | 248 | 0.0 | 0.0 | 0.00 | 0.36 | 0.00 | 80 | 1020.5 |
| 20260901204553 | 16 | 248 | 0.0 | 0.0 | 0.00 | 0.36 | 0.00 | 80 | 1020.6 |
| 20260901204053 | 16 | 248 | 0.0 | 0.0 | 0.00 | 0.36 | 0.00 | 80 | 1020.6 |
| 20260901203553 | 16 | 248 | 0.0 | 0.0 | 0.00 | 0.36 | 0.00 | 80 | 1020.7 |
| 20260901203053 | 16 | 248 | 0.0 | 0.0 | 0.00 | 0.36 | 0.00 | 80 | 1020.6 |
| 20260901202553 | 16 | 248 | 0.0 | 0.0 | 0.00 | 0.36 | 0.00 | 80 | 1020.7 |
| 20260901195054 | 17 | 248 | 0.0 | 0.0 | 0.00 | 0.36 | 0.00 | 78 | 1020.5 |
| 20260901194553 | 17 | 248 | 0.0 | 0.0 | 0.00 | 0.36 | 0.00 | 77 | 1020.5 |
| 20260901193553 | 17 | 248 | 0.0 | 3.2 | 0.00 | 0.36 | 0.00 | 77 | 1020.5 |
| 20260901190053 | 17 | 248 | 0.0 | 0.0 | 0.00 | 0.36 | 0.00 | 74 | 1020.0 |
| 20260901183553 | 18 | 248 | 0.0 | 3.2 | 0.00 | 0.36 | 0.00 | 72 | 1020.0 |
| 20260901183054 | 18 | 248 | 1.6 | 4.8 | 0.00 | 0.36 | 0.00 | 72 | 1020.0 |
| 20260901181053 | 18 | 300 | 1.6 | 8.0 | 0.00 | 0.36 | 0.00 | 70 | 1020.0 |
| 20260901173553 | 20 | 269 | 6.4 | 9.7 | 0.00 | 0.36 | 0.00 | 67 | 1020.3 |
| 20260901173053 | 20 | 259 | 3.2 | 11.3 | 0.00 | 0.36 | 0.00 | 67 | 1020.4 |
| 20260901165552 | 20 | 302 | 8.0 | 11.3 | 0.00 | 0.36 | 0.00 | 66 | 1020.5 |
| 20260901164552 | 20 | 311 | 8.0 | 16.1 | 0.00 | 0.36 | 0.00 | 65 | 1020.5 |
| 20260901164053 | 20 | 304 | 6.4 | 12.9 | 0.00 | 0.36 | 0.00 | 65 | 1020.5 |
| 20260901163552 | 20 | 304 | 3.2 | 12.9 | 0.00 | 0.36 | 0.00 | 65 | 1020.5 |
| 20260901163054 | 20 | 308 | 8.0 | 14.5 | 0.00 | 0.36 | 0.00 | 64 | 1020.5 |
| 20260901162552 | 20 | 308 | 4.8 | 12.9 | 0.00 | 0.36 | 0.00 | 65 | 1020.5 |
| 20260901162053 | 20 | 303 | 11.3 | 19.3 | 0.00 | 0.36 | 0.00 | 63 | 1020.5 |
| 20260901161053 | 20 | 295 | 11.3 | 19.3 | 0.00 | 0.36 | 0.00 | 61 | 1020.5 |
| 20260901160052 | 20 | 302 | 9.7 | 19.3 | 0.00 | 0.36 | 0.00 | 61 | 1020.4 |
| 20260901155552 | 20 | 300 | 11.3 | 19.3 | 0.00 | 0.36 | 0.00 | 62 | 1020.4 |
| 20260901155053 | 20 | 285 | 8.0 | 16.1 | 0.00 | 0.36 | 0.00 | 63 | 1020.4 |
| 20260901152053 | 20 | 324 | 9.7 | 14.5 | 0.00 | 0.36 | 0.00 | 62 | 1020.2 |
| 20260901151552 | 20 | 267 | 8.0 | 12.9 | 0.00 | 0.36 | 0.00 | 61 | 1020.2 |
| 20260901151053 | 20 | 273 | 6.4 | 19.3 | 0.00 | 0.36 | 0.00 | 62 | 1020.1 |
| 20260901145053 | 20 | 317 | 9.7 | 19.3 | 0.00 | 0.36 | 0.00 | 61 | 1020.2 |
| 20260901142053 | 21 | 283 | 9.7 | 16.1 | 0.00 | 0.36 | 0.00 | 61 | 1020.3 |
| 20260901141553 | 21 | 222 | 4.8 | 11.3 | 0.00 | 0.36 | 0.00 | 59 | 1020.3 |
| 20260901141053 | 21 | 246 | 6.4 | 16.1 | 0.00 | 0.36 | 0.00 | 60 | 1020.2 |
| 20260901140052 | 21 | 302 | 8.0 | 14.5 | 0.00 | 0.36 | 0.00 | 60 | 1020.3 |
| 20260901135552 | 21 | 295 | 6.4 | 12.9 | 0.00 | 0.36 | 0.00 | 60 | 1020.4 |
| 20260901133552 | 20 | 294 | 8.0 | 19.3 | 0.00 | 0.36 | 0.00 | 61 | 1020.3 |
| 20260901132052 | 20 | 312 | 11.3 | 19.3 | 0.00 | 0.36 | 0.00 | 60 | 1020.4 |
| 20260901131552 | 20 | 298 | 14.5 | 22.5 | 0.00 | 0.36 | 0.00 | 60 | 1020.4 |
| 20260901124552 | 20 | 297 | 11.3 | 20.9 | 0.00 | 0.36 | 0.00 | 59 | 1020.4 |
| 20260901124052 | 21 | 297 | 11.3 | 22.5 | 0.00 | 0.36 | 0.00 | 60 | 1020.4 |
| 20260901123552 | 21 | 303 | 11.3 | 19.3 | 0.00 | 0.36 | 0.00 | 61 | 1020.4 |
| 20260901122552 | 20 | 282 | 8.0 | 20.9 | 0.00 | 0.36 | 0.00 | 63 | 1020.4 |
| 20260901122052 | 20 | 289 | 11.3 | 19.3 | 0.00 | 0.36 | 0.00 | 64 | 1020.4 |
| 20260901121552 | 20 | 306 | 14.5 | 22.5 | 0.00 | 0.36 | 0.00 | 64 | 1020.4 |
| 20260901121052 | 20 | 252 | 8.0 | 19.3 | 0.00 | 0.36 | 0.00 | 66 | 1020.5 |
| 20260901115552 | 20 | 314 | 9.7 | 25.7 | 0.00 | 0.36 | 0.00 | 65 | 1020.4 |
| 20260901115053 | 20 | 306 | 9.7 | 20.9 | 0.00 | 0.36 | 0.00 | 66 | 1020.4 |
| 20260901114553 | 20 | 298 | 12.9 | 27.4 | 0.00 | 0.36 | 0.00 | 65 | 1020.4 |
| 20260901114052 | 20 | 275 | 11.3 | 25.7 | 0.00 | 0.36 | 0.00 | 65 | 1020.4 |
| 20260901113552 | 20 | 270 | 8.0 | 20.9 | 0.00 | 0.36 | 0.00 | 65 | 1020.4 |
| 20260901113052 | 20 | 283 | 12.9 | 22.5 | 0.00 | 0.36 | 0.00 | 62 | 1020.4 |
| 20260901112552 | 20 | 281 | 11.3 | 22.5 | 0.00 | 0.43 | 0.00 | 63 | 1020.4 |
| 20260901112053 | 20 | 248 | 9.7 | 19.3 | 0.00 | 0.48 | 0.00 | 65 | 1020.3 |
| 20260901111551 | 20 | 294 | 11.3 | 19.3 | 0.00 | 0.51 | 0.00 | 64 | 1020.3 |
| 20260901110052 | 20 | 301 | 11.3 | 20.9 | 0.00 | 0.56 | 0.00 | 65 | 1020.4 |
| 20260901104552 | 20 | 304 | 9.7 | 22.5 | 0.00 | 0.56 | 0.00 | 66 | 1020.2 |
| 20260901104052 | 20 | 304 | 11.3 | 22.5 | 0.00 | 0.58 | 0.00 | 67 | 1020.2 |
| 20260901103552 | 20 | 300 | 11.3 | 20.9 | 0.00 | 0.58 | 0.00 | 66 | 1020.1 |
| 20260901100052 | 19 | 283 | 8.0 | 19.3 | 0.00 | 0.64 | 0.00 | 68 | 1020.0 |
| 20260901095552 | 19 | 280 | 12.9 | 29.0 | 0.00 | 0.64 | 0.00 | 68 | 1020.0 |
| 20260901095052 | 19 | 273 | 9.7 | 19.3 | 0.00 | 0.64 | 0.00 | 70 | 1020.0 |
| 20260901094552 | 18 | 283 | 11.3 | 19.3 | 0.00 | 0.64 | 0.00 | 71 | 1020.0 |
| 20260901093052 | 19 | 308 | 8.0 | 20.9 | 0.00 | 0.64 | 0.00 | 71 | 1019.9 |
| 20260901092552 | 19 | 286 | 12.9 | 22.5 | 0.00 | 0.64 | 0.00 | 70 | 1019.9 |
| 20260901092052 | 19 | 307 | 9.7 | 19.3 | 0.00 | 0.64 | 0.00 | 70 | 1019.9 |
| 20260901091551 | 19 | 255 | 9.7 | 22.5 | 0.00 | 0.64 | 0.00 | 70 | 1019.8 |
| 20260901091052 | 19 | 303 | 14.5 | 27.4 | 0.00 | 0.64 | 0.00 | 70 | 1019.8 |
| 20260901081052 | 18 | 295 | 11.3 | 20.9 | 0.00 | 0.64 | 0.00 | 73 | 1019.4 |
| 20260901073052 | 18 | 312 | 8.0 | 19.3 | 0.00 | 0.69 | 0.00 | 79 | 1018.9 |
| 20260901072551 | 18 | 298 | 8.0 | 14.5 | 0.00 | 0.69 | 0.00 | 79 | 1018.9 |
| 20260901072053 | 18 | 291 | 4.8 | 12.9 | 0.00 | 0.69 | 0.00 | 81 | 1018.8 |
| 20260901071551 | 18 | 286 | 6.4 | 11.3 | 0.00 | 0.69 | 0.00 | 81 | 1018.8 |
| 20260901071053 | 17 | 271 | 4.8 | 12.9 | 0.00 | 0.69 | 0.00 | 82 | 1018.7 |
| 20260901070051 | 17 | 299 | 3.2 | 4.8 | 0.00 | 0.69 | 0.00 | 86 | 1018.5 |
| 20260901065052 | 17 | 299 | 1.6 | 4.8 | 0.00 | 0.69 | 0.00 | 87 | 1018.4 |
| 20260901064552 | 17 | 299 | 3.2 | 4.8 | 0.00 | 0.69 | 0.00 | 87 | 1018.4 |
| 20260901063053 | 17 | 299 | 1.6 | 8.0 | 0.00 | 0.71 | 0.00 | 89 | 1018.4 |
| 20260901062551 | 16 | 299 | 1.6 | 4.8 | 0.00 | 0.71 | 0.00 | 90 | 1018.4 |
| 20260901060051 | 16 | 299 | 0.0 | 3.2 | 0.00 | 0.71 | 0.00 | 92 | 1018.2 |
| 20260901055052 | 16 | 299 | 0.0 | 4.8 | 0.00 | 0.71 | 0.00 | 93 | 1018.2 |
| 20260901054551 | 16 | 299 | 3.2 | 4.8 | 0.00 | 0.71 | 0.00 | 93 | 1018.0 |
| 20260901054052 | 16 | 299 | 3.2 | 4.8 | 0.00 | 0.74 | 0.00 | 93 | 1017.9 |
| 20260901053551 | 16 | 299 | 1.6 | 4.8 | 0.00 | 0.79 | 0.00 | 93 | 1017.9 |
| 20260901052052 | 16 | 299 | 1.6 | 3.2 | 0.00 | 0.81 | 0.00 | 93 | 1017.8 |
| 20260901051552 | 16 | 299 | 0.0 | 0.0 | 0.00 | 0.81 | 0.00 | 93 | 1017.7 |
| 20260901051053 | 16 | 299 | 1.6 | 3.2 | 0.00 | 0.81 | 0.00 | 93 | 1017.5 |
| 20260901050051 | 16 | 299 | 0.0 | 0.0 | 0.00 | 0.81 | 0.00 | 93 | 1017.4 |
| 20260901045551 | 16 | 299 | 1.6 | 4.8 | 0.00 | 0.81 | 0.00 | 93 | 1017.4 |
| 20260901043052 | 16 | 299 | 0.0 | 0.0 | 0.00 | 0.81 | 0.00 | 94 | 1017.4 |
| 20260901042551 | 16 | 299 | 0.0 | 0.0 | 0.00 | 0.81 | 0.00 | 94 | 1017.4 |
| 20260901042052 | 16 | 299 | 0.0 | 0.0 | 0.00 | 0.81 | 0.00 | 94 | 1017.3 |
| 20260901040052 | 16 | 299 | 0.0 | 0.0 | 0.00 | 0.81 | 0.00 | 94 | 1017.1 |
| 20260901034052 | 16 | 299 | 0.0 | 3.2 | 0.00 | 0.81 | 0.00 | 94 | 1017.0 |
| 20260901033552 | 16 | 299 | 0.0 | 3.2 | 0.00 | 0.81 | 0.00 | 94 | 1017.0 |
| 20260901030051 | 16 | 299 | 0.0 | 3.2 | 0.00 | 0.81 | 0.00 | 95 | 1016.9 |
| 20260901025551 | 16 | 299 | 1.6 | 4.8 | 0.00 | 0.81 | 0.00 | 95 | 1016.9 |